EW7868 Weather Reports


Display with metric or nautical units.
time (UTC)temp
F
wind
direction
speed
MPH
gust
MPH
rain 1hr
in
rain 24hr
in
rain mn
in
humidity
%
barometer
mb
20260906045626 74 102 0.0 4.0 0.00 0.00 0.00 89 1014.8
20260906045122 74 90 0.0 3.0 0.00 0.00 0.00 89 1014.8
20260906044618 74 90 1.0 3.0 0.00 0.00 0.00 89 1014.6
20260906044112 74 81 2.0 5.0 0.00 0.00 0.00 89 1014.8
20260906043609 74 69 0.0 3.0 0.00 0.00 0.00 88 1014.5
20260906043104 74 86 7.0 7.0 0.00 0.00 0.00 88 1014.3
20260906042603 74 93 8.0 8.0 0.00 0.00 0.00 88 1014.4
20260906042058 74 82 4.0 7.0 0.00 0.00 0.00 88 1014.5
20260906041554 74 90 3.0 6.0 0.00 0.00 0.00 88 1014.3
20260906041049 74 90 3.0 7.0 0.00 0.00 0.00 88 1014.4
20260906040544 74 94 3.0 7.0 0.00 0.00 0.00 88 1014.3
20260906040039 74 97 0.0 3.0 0.00 0.00 0.00 89 1014.4
20260906035534 74 97 1.0 3.0 0.00 0.00 0.00 89 1014.1
20260906035031 74 90 1.0 4.0 0.00 0.00 0.00 89 1014.4
20260906034530 74 83 1.0 4.0 0.00 0.00 0.00 88 1014.4
20260906034025 74 74 1.0 3.0 0.00 0.00 0.00 88 1014.3
20260906033520 74 73 2.0 3.0 0.00 0.00 0.00 88 1014.2
20260906033016 74 77 0.0 2.0 0.00 0.00 0.00 88 1014.2
20260906032512 74 95 2.0 3.0 0.00 0.00 0.00 88 1014.1
20260906032007 74 90 5.0 5.0 0.00 0.00 0.00 88 1014.1
20260906031502 74 114 3.0 5.0 0.00 0.00 0.00 88 1014.1
20260906030957 74 97 1.0 2.0 0.00 0.00 0.00 88 1014.3
20260906030451 74 117 2.0 7.0 0.00 0.00 0.00 88 1014.1
20260906025946 74 97 4.0 5.0 0.00 0.00 0.00 88 1014.2
20260906025440 74 82 1.0 4.0 0.00 0.00 0.00 88 1014.4
20260906024939 73 160 0.0 6.0 0.00 0.00 0.00 88 1014.0
20260906024438 73 106 2.0 5.0 0.00 0.00 0.00 88 1014.1
20260906023933 73 105 0.0 5.0 0.00 0.00 0.00 89 1014.1
20260906023429 73 70 2.0 7.0 0.00 0.00 0.00 88 1014.2
20260906022924 73 86 3.0 7.0 0.00 0.00 0.00 88 1014.2
20260906022419 73 79 5.0 5.0 0.00 0.00 0.00 88 1014.3
20260906021915 73 104 3.0 5.0 0.00 0.00 0.00 88 1014.2
20260906021414 73 83 0.0 4.0 0.00 0.00 0.00 88 1014.3
20260906020909 73 112 7.0 11.0 0.00 0.00 0.00 87 1014.2
20260906020403 74 90 0.0 5.0 0.00 0.00 0.00 87 1014.3
20260906015858 74 114 3.0 5.0 0.00 0.00 0.00 87 1014.2
20260906015357 74 90 4.0 7.0 0.00 0.00 0.00 87 1014.2
20260906014857 74 85 4.0 5.0 0.00 0.00 0.00 86 1014.0
20260906014357 74 243 3.0 6.0 0.00 0.00 0.00 86 1014.1
20260906013853 74 87 3.0 4.0 0.00 0.00 0.00 87 1014.1
20260906013348 74 95 2.0 4.0 0.00 0.00 0.00 87 1014.1
20260906012844 74 105 1.0 6.0 0.00 0.00 0.00 87 1014.0
20260906012339 75 90 1.0 4.0 0.00 0.00 0.00 88 1014.0
20260906011838 75 71 3.0 5.0 0.00 0.00 0.00 88 1013.8
20260906011333 75 81 0.0 3.0 0.00 0.00 0.00 88 1013.9
20260906010829 75 76 0.0 4.0 0.00 0.00 0.00 88 1013.6
20260906010325 75 84 2.0 4.0 0.00 0.00 0.00 87 1013.9
20260906005821 75 97 5.0 5.0 0.00 0.00 0.00 87 1014.1
20260906005319 75 90 2.0 8.0 0.00 0.00 0.00 86 1013.6
20260906004819 76 100 0.0 7.0 0.00 0.00 0.00 86 1013.8
20260906004318 76 81 0.0 4.0 0.00 0.00 0.00 85 1013.8
20260906003814 76 90 1.0 2.0 0.00 0.00 0.00 85 1013.5
20260906003309 77 106 0.0 5.0 0.00 0.00 0.00 84 1013.5
20260906002805 77 117 0.0 5.0 0.00 0.00 0.00 84 1013.4
20260906002306 77 90 0.0 5.0 0.00 0.00 0.00 83 1013.2
20260906001800 78 92 7.0 9.0 0.00 0.00 0.00 82 1013.2
20260906001254 78 113 2.0 3.0 0.00 0.00 0.00 82 1013.2
20260906000749 78 95 4.0 5.0 0.00 0.00 0.00 81 1013.0
20260906000244 78 114 1.0 6.0 0.00 0.00 0.00 80 1013.1
20260905235739 79 87 4.0 6.0 0.00 0.00 0.00 79 1012.9
20260905235238 80 210 0.0 7.0 0.00 0.00 0.00 78 1013.0
20260905234734 81 80 2.0 5.0 0.00 0.00 0.00 77 1012.9
20260905234229 81 122 3.0 5.0 0.00 0.00 0.00 76 1013.0
20260905233725 82 76 0.0 3.0 0.00 0.00 0.00 75 1013.1
20260905233224 82 90 3.0 5.0 0.00 0.00 0.00 75 1013.0
20260905232719 83 109 0.0 3.0 0.00 0.00 0.00 75 1013.0
20260905232215 82 101 2.0 4.0 0.00 0.00 0.00 75 1012.8
20260905231710 83 90 3.0 4.0 0.00 0.00 0.00 73 1012.9
20260905231206 83 113 2.0 5.0 0.00 0.00 0.00 74 1012.9
20260905230702 83 85 2.0 4.0 0.00 0.00 0.00 73 1012.7
20260905230159 84 86 3.0 4.0 0.00 0.00 0.00 73 1012.9
20260905225659 83 111 0.0 3.0 0.00 0.00 0.00 73 1013.0
20260905225154 82 172 1.0 4.0 0.00 0.00 0.00 75 1012.8
20260905224654 84 84 2.0 5.0 0.00 0.00 0.00 74 1012.5
20260905224148 83 80 4.0 4.0 0.00 0.00 0.00 74 1012.4
20260905223645 83 97 3.0 3.0 0.00 0.00 0.00 74 1012.4
20260905223142 83 35 1.0 3.0 0.00 0.00 0.00 75 1012.6
20260905222637 83 95 2.0 7.0 0.00 0.00 0.00 74 1012.7
20260905222131 84 81 0.0 8.0 0.00 0.00 0.00 73 1012.6
20260905221627 84 103 0.0 8.0 0.00 0.00 0.00 73 1012.4
20260905221124 84 90 2.0 7.0 0.00 0.00 0.00 74 1012.6
20260905220619 84 257 0.0 7.0 0.00 0.00 0.00 75 1012.7
20260905220115 84 71 4.0 6.0 0.00 0.00 0.00 74 1012.7
20260905215614 84 110 2.0 4.0 0.00 0.00 0.00 75 1012.7
20260905215110 83 117 3.0 5.0 0.00 0.00 0.00 74 1012.4
20260905214606 85 73 2.0 4.0 0.00 0.00 0.00 73 1012.3
20260905214106 85 76 3.0 5.0 0.00 0.00 0.00 73 1012.5
20260905213601 86 77 2.0 4.0 0.00 0.00 0.00 72 1012.3
20260905213056 85 101 3.0 8.0 0.00 0.00 0.00 72 1012.2
20260905212551 86 82 5.0 5.0 0.00 0.00 0.00 71 1012.3
20260905212051 86 104 3.0 4.0 0.00 0.00 0.00 72 1012.5
20260905211546 86 125 0.0 7.0 0.00 0.00 0.00 72 1012.4
20260905211042 86 106 3.0 6.0 0.00 0.00 0.00 72 1012.3
20260905210537 87 101 2.0 6.0 0.00 0.00 0.00 72 1012.4
20260905210032 86 80 2.0 5.0 0.00 0.00 0.00 72 1012.2
20260905205531 87 60 3.0 4.0 0.00 0.00 0.00 72 1012.3
20260905205030 86 90 1.0 5.0 0.00 0.00 0.00 73 1012.2
20260905204526 87 294 1.0 3.0 0.00 0.00 0.00 73 1012.4
20260905204021 87 74 3.0 5.0 0.00 0.00 0.00 72 1012.1
20260905203521 86 86 3.0 4.0 0.00 0.00 0.00 73 1012.2
20260905203016 86 81 0.0 4.0 0.00 0.00 0.00 73 1012.1
20260905202511 87 90 2.0 6.0 0.00 0.00 0.00 72 1012.4
20260905202007 88 111 0.0 6.0 0.00 0.00 0.00 71 1012.3
20260905201502 87 90 0.0 3.0 0.00 0.00 0.00 71 1012.2
20260905201001 88 94 3.0 5.0 0.00 0.00 0.00 71 1012.3
20260905200457 89 81 2.0 4.0 0.00 0.00 0.00 69 1012.4
20260905195955 88 81 0.0 4.0 0.00 0.00 0.00 70 1012.1
20260905195451 88 107 3.0 4.0 0.00 0.00 0.00 71 1012.2
20260905194946 88 90 0.0 3.0 0.00 0.00 0.00 72 1012.2
20260905194446 87 84 2.0 4.0 0.00 0.00 0.00 72 1012.0
20260905193940 88 90 2.0 3.0 0.00 0.00 0.00 73 1012.2
20260905193435 87 81 2.0 3.0 0.00 0.00 0.00 73 1012.3
20260905192930 88 90 3.0 5.0 0.00 0.00 0.00 71 1012.4
20260905192425 87 106 2.0 4.0 0.00 0.00 0.00 73 1012.1
20260905191920 88 67 2.0 6.0 0.00 0.00 0.00 72 1012.4
20260905191419 88 90 1.0 5.0 0.00 0.00 0.00 71 1012.3
20260905190914 88 85 2.0 3.0 0.00 0.00 0.00 72 1012.4
20260905190412 89 121 0.0 7.0 0.00 0.00 0.00 69 1012.2
20260905185910 89 71 2.0 3.0 0.00 0.00 0.00 70 1012.4
20260905185406 88 72 3.0 6.0 0.00 0.00 0.00 71 1012.5
20260905184904 90 106 1.0 5.0 0.00 0.00 0.00 69 1012.7
20260905184359 89 96 2.0 5.0 0.00 0.00 0.00 70 1012.3
20260905183857 90 74 1.0 5.0 0.00 0.00 0.00 68 1012.4
20260905183352 90 74 0.0 3.0 0.00 0.00 0.00 70 1012.5
20260905182847 91 60 0.0 3.0 0.00 0.00 0.00 68 1012.5
20260905182341 91 293 0.0 5.0 0.00 0.00 0.00 68 1012.6
20260905181837 91 300 3.0 3.0 0.00 0.00 0.00 69 1012.4
20260905181337 90 90 0.0 3.0 0.00 0.00 0.00 72 1012.5
20260905180836 89 126 0.0 3.0 0.00 0.00 0.00 71 1012.7
20260905180331 89 96 0.0 3.0 0.00 0.00 0.00 72 1012.5
20260905175826 88 78 0.0 2.0 0.00 0.00 0.00 73 1012.5
20260905175326 88 84 0.0 5.0 0.00 0.00 0.00 72 1012.6
20260905174821 89 86 3.0 5.0 0.00 0.00 0.00 70 1012.5
20260905174317 89 332 3.0 3.0 0.00 0.00 0.00 71 1012.6
20260905173812 89 105 1.0 2.0 0.00 0.00 0.00 73 1012.5
20260905173308 88 99 0.0 4.0 0.00 0.00 0.00 74 1012.6
20260905172808 88 201 0.0 2.0 0.00 0.00 0.00 73 1012.8
20260905172306 88 82 0.0 5.0 0.00 0.00 0.00 74 1012.8
20260905171803 87 98 0.0 5.0 0.00 0.00 0.00 76 1012.5
20260905171259 87 90 4.0 4.0 0.00 0.00 0.00 76 1012.8
20260905170755 87 98 0.0 2.0 0.00 0.00 0.00 75 1012.8
20260905170251 88 90 0.0 3.0 0.00 0.00 0.00 76 1012.8
20260905165749 87 77 0.0 4.0 0.00 0.00 0.00 76 1012.9
20260905165246 87 81 1.0 4.0 0.00 0.00 0.00 78 1012.8
20260905164746 87 90 0.0 5.0 0.00 0.00 0.00 77 1012.9
20260905164240 87 90 0.0 3.0 0.00 0.00 0.00 78 1013.0
20260905163736 86 111 0.0 4.0 0.00 0.00 0.00 77 1013.1
20260905163232 86 90 2.0 3.0 0.00 0.00 0.00 78 1012.6
20260905162728 86 270 2.0 3.0 0.00 0.00 0.00 78 1012.9
20260905162227 86 86 0.0 5.0 0.00 0.00 0.00 79 1013.1
20260905161723 86 90 0.0 4.0 0.00 0.00 0.00 78 1013.1
20260905161221 86 86 0.0 7.0 0.00 0.00 0.00 79 1012.9
20260905160719 86 73 2.0 4.0 0.00 0.00 0.00 79 1013.0
20260905160214 85 74 0.0 3.0 0.00 0.00 0.00 80 1013.2
20260905155708 85 74 2.0 4.0 0.00 0.00 0.00 79 1012.8
20260905155207 85 90 4.0 6.0 0.00 0.00 0.00 80 1012.8
20260905154701 85 120 0.0 3.0 0.00 0.00 0.00 80 1012.7
20260905154157 86 117 3.0 5.0 0.00 0.00 0.00 80 1012.7
20260905153653 86 73 0.0 2.0 0.00 0.00 0.00 81 1012.6
20260905153148 86 94 0.0 5.0 0.00 0.00 0.00 79 1012.7
20260905152643 86 121 2.0 7.0 0.00 0.00 0.00 79 1012.5
20260905152138 86 103 1.0 3.0 0.00 0.00 0.00 80 1012.6
20260905151633 86 90 0.0 3.0 0.00 0.00 0.00 80 1012.4
20260905151128 86 66 0.0 3.0 0.00 0.00 0.00 82 1012.5
20260905150624 85 63 0.0 3.0 0.00 0.00 0.00 82 1012.4
20260905150122 85 77 2.0 4.0 0.00 0.00 0.00 83 1012.3
20260905145620 85 110 3.0 3.0 0.00 0.00 0.00 83 1012.4
20260905145119 84 90 0.0 3.0 0.00 0.00 0.00 84 1012.5
20260905144614 85 345 0.0 4.0 0.00 0.00 0.00 83 1012.4
20260905144113 85 77 0.0 2.0 0.00 0.00 0.00 83 1012.7
20260905143608 85 90 2.0 5.0 0.00 0.00 0.00 82 1012.2
20260905143103 85 114 0.0 4.0 0.00 0.00 0.00 82 1012.1
20260905142601 84 90 0.0 4.0 0.00 0.00 0.00 84 1012.1
20260905142056 84 90 2.0 3.0 0.00 0.00 0.00 84 1012.4
20260905141556 84 90 3.0 4.0 0.00 0.00 0.00 86 1012.0
20260905141052 83 77 1.0 3.0 0.00 0.00 0.00 88 1012.1
20260905140548 82 93 4.0 5.0 0.00 0.00 0.00 88 1011.8
20260905140046 83 90 2.0 5.0 0.00 0.00 0.00 88 1011.7
20260905135542 82 96 2.0 3.0 0.00 0.00 0.00 88 1011.7
20260905135036 82 82 0.0 2.0 0.00 0.00 0.00 88 1011.8
20260905134531 83 117 1.0 4.0 0.00 0.00 0.00 88 1012.1
20260905134029 82 90 0.0 4.0 0.00 0.00 0.00 88 1012.2
20260905133525 83 69 0.0 2.0 0.00 0.00 0.00 87 1012.2
20260905133020 83 279 0.0 3.0 0.00 0.00 0.00 87 1012.4
20260905132520 82 81 0.0 3.0 0.00 0.00 0.00 88 1012.4
20260905132020 82 277 3.0 4.0 0.00 0.00 0.00 88 1012.3
20260905131515 82 215 1.0 2.0 0.00 0.00 0.00 88 1012.1
20260905131010 82 346 0.0 3.0 0.00 0.00 0.00 88 1012.1
20260905130509 82 254 0.0 1.0 0.00 0.00 0.00 89 1011.9
20260905130005 81 270 0.0 2.0 0.00 0.00 0.00 89 1011.8
20260905125459 82 287 0.0 4.0 0.00 0.00 0.00 89 1011.8
20260905124954 81 294 2.0 3.0 0.00 0.00 0.00 88 1011.8
20260905124451 82 285 1.0 3.0 0.00 0.00 0.00 88 1011.6
20260905123946 82 263 0.0 2.0 0.00 0.00 0.00 89 1011.6
20260905123443 82 270 1.0 2.0 0.00 0.00 0.00 89 1011.7
20260905122943 81 338 0.0 3.0 0.00 0.00 0.00 90 1011.6
20260905122443 81 262 0.0 2.0 0.00 0.00 0.00 92 1011.3
20260905121938 80 303 2.0 2.0 0.00 0.00 0.00 94 1011.2
20260905121434 79 270 0.0 2.0 0.00 0.00 0.00 97 1011.6
20260905120933 78 270 0.0 2.0 0.00 0.00 0.00 97 1011.3
20260905120427 78 201 3.0 4.0 0.00 0.00 0.00 96 1011.4
20260905115922 78 208 2.0 3.0 0.00 0.00 0.00 96 1011.2
20260905115422 77 201 0.0 2.0 0.00 0.00 0.00 96 1011.4
20260905114917 77 209 1.0 1.0 0.00 0.00 0.00 96 1011.3
20260905114416 77 192 1.0 2.0 0.00 0.00 0.00 97 1011.1
20260905113915 77 203 0.0 0.0 0.00 0.00 0.00 97 1011.1
20260905113411 77 180 0.0 0.0 0.00 0.00 0.00 96 1011.1
20260905112906 77 186 0.0 0.0 0.00 0.00 0.00 96 1011.1
20260905112401 77 209 0.0 1.0 0.00 0.00 0.00 96 1011.1
20260905111856 77 278 0.0 0.0 0.00 0.00 0.00 97 1011.2
20260905111350 77 278 0.0 1.0 0.00 0.00 0.00 97 1011.0
20260905110850 77 340 0.0 1.0 0.00 0.00 0.00 97 1011.1
20260905110344 77 228 0.0 0.0 0.00 0.00 0.00 97 1011.2
20260905105839 77 228 0.0 0.0 0.00 0.00 0.00 97 1011.0
20260905105339 77 228 0.0 0.0 0.00 0.00 0.00 97 1010.9
20260905104833 77 228 0.0 0.0 0.00 0.00 0.00 97 1011.0
20260905104330 77 228 0.0 2.0 0.00 0.00 0.00 97 1010.9
20260905103829 77 261 0.0 0.0 0.00 0.00 0.00 96 1011.2
20260905103324 77 345 0.0 0.0 0.00 0.00 0.00 96 1011.1
20260905102820 77 342 0.0 0.0 0.00 0.00 0.00 96 1011.0
20260905102317 78 342 0.0 2.0 0.00 0.00 0.00 96 1011.1
20260905101817 78 295 2.0 2.0 0.00 0.00 0.00 97 1011.0
20260905101315 77 0 0.0 2.0 0.00 0.00 0.00 97 1011.0
20260905100809 77 328 2.0 2.0 0.00 0.00 0.00 97 1010.8
20260905100305 77 0 0.0 1.0 0.00 0.00 0.00 97 1010.9
20260905095804 77 345 0.0 0.0 0.00 0.00 0.00 97 1011.3
20260905095259 77 0 0.0 0.0 0.00 0.00 0.00 97 1011.0
20260905094754 77 0 0.0 1.0 0.00 0.00 0.00 97 1011.1
20260905094249 77 263 0.0 0.0 0.00 0.00 0.00 97 1011.0
20260905093748 77 263 0.0 0.0 0.00 0.00 0.00 97 1010.8
20260905093244 77 263 0.0 0.0 0.00 0.00 0.00 97 1010.8
20260905092739 77 263 0.0 0.0 0.00 0.00 0.00 96 1011.1
20260905092234 77 263 0.0 0.0 0.00 0.00 0.00 96 1011.1
20260905091729 77 294 0.0 2.0 0.00 0.00 0.00 96 1011.0
20260905091224 78 14 0.0 2.0 0.00 0.00 0.00 96 1011.0
20260905090723 78 276 0.0 2.0 0.00 0.00 0.00 95 1011.1
20260905090219 78 334 1.0 1.0 0.00 0.00 0.00 95 1011.1
20260905085718 78 331 0.0 2.0 0.00 0.00 0.00 95 1011.0
20260905085213 79 57 2.0 3.0 0.00 0.00 0.00 95 1011.3
20260905084713 79 14 0.0 2.0 0.00 0.00 0.00 95 1011.0
20260905084212 78 337 0.0 3.0 0.00 0.00 0.00 96 1010.9
20260905083707 78 255 1.0 2.0 0.00 0.00 0.00 96 1011.0
20260905083203 78 306 0.0 3.0 0.00 0.00 0.00 97 1011.0
20260905082659 78 203 0.0 2.0 0.00 0.00 0.00 97 1010.9
20260905082154 78 352 0.0 0.0 0.00 0.00 0.00 96 1010.6
20260905081649 78 279 1.0 1.0 0.00 0.00 0.00 96 1010.9
20260905081144 78 254 0.0 2.0 0.00 0.00 0.00 96 1011.1
20260905080644 79 249 0.0 1.0 0.00 0.00 0.00 96 1011.0
20260905080143 79 206 0.0 2.0 0.00 0.00 0.00 96 1011.1
20260905075643 79 246 0.0 1.0 0.00 0.00 0.00 96 1010.9
20260905075142 79 270 0.0 2.0 0.00 0.00 0.00 96 1011.0
20260905074641 79 255 1.0 1.0 0.00 0.00 0.00 95 1011.0
20260905074137 79 198 1.0 2.0 0.00 0.00 0.00 95 1011.0
20260905073633 79 279 0.0 1.0 0.00 0.00 0.00 95 1011.0
20260905073128 79 262 0.0 1.0 0.00 0.00 0.00 95 1010.9
20260905072627 80 237 0.0 0.0 0.00 0.00 0.00 94 1011.0
20260905072123 80 255 0.0 1.0 0.00 0.00 0.00 94 1010.9
20260905071619 80 294 0.0 1.0 0.00 0.00 0.00 94 1011.1
20260905071114 80 289 0.0 1.0 0.00 0.00 0.00 94 1011.1
20260905070610 80 255 0.0 2.0 0.00 0.00 0.00 94 1011.2
20260905070105 80 257 0.0 1.0 0.00 0.00 0.00 94 1010.9
20260905065603 80 216 0.0 2.0 0.00 0.00 0.00 94 1011.3
20260905065058 80 206 0.0 3.0 0.00 0.00 0.00 93 1011.2
20260905064553 80 208 2.0 2.0 0.00 0.00 0.00 93 1011.1
20260905064049 80 209 0.0 1.0 0.00 0.00 0.00 93 1011.3
20260905063547 80 212 0.0 2.0 0.00 0.00 0.00 93 1011.3
20260905063044 80 204 2.0 3.0 0.00 0.00 0.00 93 1011.2
20260905062539 80 200 0.0 3.0 0.00 0.00 0.00 94 1011.3
20260905062038 80 188 0.0 2.0 0.00 0.00 0.00 94 1011.2
20260905061534 80 195 0.0 2.0 0.00 0.00 0.00 95 1011.3
20260905061033 80 213 0.0 0.0 0.00 0.00 0.00 95 1011.3
20260905060529 80 213 0.0 0.0 0.00 0.00 0.00 94 1011.4
20260905060025 80 206 1.0 2.0 0.00 0.00 0.00 95 1011.2
20260905055523 80 209 0.0 0.0 0.00 0.00 0.00 94 1011.1
20260905055018 80 195 2.0 2.0 0.00 0.00 0.00 94 1011.4
20260905054514 80 203 0.0 2.0 0.00 0.00 0.00 94 1011.4
20260905054009 80 195 0.0 3.0 0.00 0.00 0.00 94 1011.0
20260905053503 80 200 3.0 3.0 0.00 0.00 0.00 94 1011.2
20260905052959 80 200 0.0 2.0 0.00 0.00 0.00 94 1011.3
20260905052459 81 190 0.0 2.0 0.00 0.00 0.00 93 1011.1
20260905051958 81 197 0.0 2.0 0.00 0.00 0.00 93 1011.2
20260905051454 81 198 0.0 2.0 0.00 0.00 0.00 93 1011.2
20260905050951 81 206 0.0 1.0 0.00 0.00 0.00 93 1011.3
20260905050446 80 195 0.0 2.0 0.00 0.00 0.00 93 1011.3